Location: Ash Shall?l al Awwal
(24.0167°N, 32.8667°E)
Time: 05:00:47
(UTC+00:00)

Palapa 6 Rocket - Pass Details

Date: 02 March 2021
Orbit: 484 x 1216 km, 22.7° (Epoch: 12 April)

Event Time Altitude Azimuth Distance (km) Brightness Sun altitude
Rises 16:20:26 0° 258° (WSW) 3,665 9.4 -7.3°
Reaches altitude 10° 16:22:57 10° 257° (WSW) 2,813 8.1 -7.9°
Maximum altitude 16:30:03 76° 173° (S) 1,171 4.4 -9.5°
Enters shadow 16:37:13 14° 89° (E) 2,869 5.8 -11.2°
